#datetime,building,power
2022-02-17T00:00:00,mcc,58.18
2022-02-17T00:01:00,mcc,52.95
2022-02-17T00:02:00,mcc,52.35
2022-02-17T00:03:00,mcc,50.86
2022-02-17T00:04:00,mcc,44.77
2022-02-17T00:05:00,mcc,45.56
2022-02-17T00:06:00,mcc,47.43
2022-02-17T00:07:00,mcc,48.39
2022-02-17T00:08:00,mcc,48.23
2022-02-17T00:09:00,mcc,61.81
2022-02-17T00:10:00,mcc,46.94
2022-02-17T00:11:00,mcc,50.00
2022-02-17T00:12:00,mcc,56.11
2022-02-17T00:13:00,mcc,47.00
2022-02-17T00:14:00,mcc,49.38
2022-02-17T00:15:00,mcc,47.31
2022-02-17T00:16:00,mcc,45.92
2022-02-17T00:17:00,mcc,46.25
2022-02-17T00:18:00,mcc,46.06
2022-02-17T00:19:00,mcc,48.93
2022-02-17T00:20:00,mcc,45.68
2022-02-17T00:21:00,mcc,45.56
2022-02-17T00:22:00,mcc,63.56
2022-02-17T00:23:00,mcc,45.09
2022-02-17T00:24:00,mcc,59.60
2022-02-17T00:25:00,mcc,45.25
2022-02-17T00:26:00,mcc,43.20
2022-02-17T00:27:00,mcc,42.87
2022-02-17T00:28:00,mcc,45.01
2022-02-17T00:29:00,mcc,44.12
2022-02-17T00:30:00,mcc,56.34
2022-02-17T00:31:00,mcc,43.16
2022-02-17T00:32:00,mcc,44.20
2022-02-17T00:33:00,mcc,43.44
2022-02-17T00:34:00,mcc,40.46
2022-02-17T00:35:00,mcc,42.84
2022-02-17T00:36:00,mcc,43.04
2022-02-17T00:37:00,mcc,39.71
2022-02-17T00:38:00,mcc,38.67
2022-02-17T00:39:00,mcc,39.61
2022-02-17T00:40:00,mcc,37.93
2022-02-17T00:41:00,mcc,36.53
2022-02-17T00:42:00,mcc,35.22
2022-02-17T00:43:00,mcc,36.79
2022-02-17T00:44:00,mcc,37.26
2022-02-17T00:45:00,mcc,37.51
2022-02-17T00:46:00,mcc,37.30
2022-02-17T00:47:00,mcc,39.75
2022-02-17T00:48:00,mcc,36.72
2022-02-17T00:49:00,mcc,45.07
2022-02-17T00:50:00,mcc,40.11
2022-02-17T00:51:00,mcc,40.83
2022-02-17T00:52:00,mcc,42.73
2022-02-17T00:53:00,mcc,38.93
2022-02-17T00:54:00,mcc,36.49
2022-02-17T00:55:00,mcc,40.18
2022-02-17T00:56:00,mcc,38.95
2022-02-17T00:57:00,mcc,37.67
2022-02-17T00:58:00,mcc,37.98
2022-02-17T00:59:00,mcc,39.43
2022-02-17T01:00:00,mcc,40.79
2022-02-17T01:01:00,mcc,39.81
2022-02-17T01:02:00,mcc,39.83
2022-02-17T01:03:00,mcc,40.07
2022-02-17T01:04:00,mcc,38.64
2022-02-17T01:05:00,mcc,36.97
2022-02-17T01:06:00,mcc,39.01
2022-02-17T01:07:00,mcc,47.33
2022-02-17T01:08:00,mcc,39.08
2022-02-17T01:09:00,mcc,37.60
2022-02-17T01:10:00,mcc,36.40
2022-02-17T01:11:00,mcc,38.29
2022-02-17T01:12:00,mcc,34.68
2022-02-17T01:13:00,mcc,35.51
2022-02-17T01:14:00,mcc,36.12
2022-02-17T01:15:00,mcc,36.21
2022-02-17T01:16:00,mcc,35.36
2022-02-17T01:17:00,mcc,37.07
2022-02-17T01:18:00,mcc,34.63
2022-02-17T01:19:00,mcc,34.33
2022-02-17T01:20:00,mcc,37.44
2022-02-17T01:21:00,mcc,39.23
2022-02-17T01:22:00,mcc,38.61
2022-02-17T01:23:00,mcc,37.79
2022-02-17T01:24:00,mcc,36.46
2022-02-17T01:25:00,mcc,39.52
2022-02-17T01:26:00,mcc,46.05
2022-02-17T01:27:00,mcc,35.88
2022-02-17T01:28:00,mcc,34.55
2022-02-17T01:29:00,mcc,33.04
2022-02-17T01:30:00,mcc,35.10
2022-02-17T01:31:00,mcc,31.06
2022-02-17T01:32:00,mcc,33.34
2022-02-17T01:33:00,mcc,37.99
2022-02-17T01:34:00,mcc,36.40
2022-02-17T01:35:00,mcc,35.92
2022-02-17T01:36:00,mcc,35.29
2022-02-17T01:37:00,mcc,36.69
2022-02-17T01:38:00,mcc,36.35
2022-02-17T01:39:00,mcc,34.77
2022-02-17T01:40:00,mcc,36.37
2022-02-17T01:41:00,mcc,38.77
2022-02-17T01:42:00,mcc,38.93
2022-02-17T01:43:00,mcc,37.16
2022-02-17T01:44:00,mcc,46.38
2022-02-17T01:45:00,mcc,35.33
2022-02-17T01:46:00,mcc,36.99
2022-02-17T01:47:00,mcc,38.74
2022-02-17T01:48:00,mcc,39.95
2022-02-17T01:49:00,mcc,39.81
2022-02-17T01:50:00,mcc,41.07
2022-02-17T01:51:00,mcc,39.58
2022-02-17T01:52:00,mcc,38.93
2022-02-17T01:53:00,mcc,35.59
2022-02-17T01:54:00,mcc,36.86
2022-02-17T01:55:00,mcc,37.06
2022-02-17T01:56:00,mcc,37.18
2022-02-17T01:57:00,mcc,37.17
2022-02-17T01:58:00,mcc,37.66
2022-02-17T01:59:00,mcc,36.13
2022-02-17T02:00:00,mcc,37.95
2022-02-17T02:01:00,mcc,36.43
2022-02-17T02:02:00,mcc,43.65
2022-02-17T02:03:00,mcc,40.11
2022-02-17T02:04:00,mcc,38.94
2022-02-17T02:05:00,mcc,39.00
2022-02-17T02:06:00,mcc,37.06
2022-02-17T02:07:00,mcc,38.55
2022-02-17T02:08:00,mcc,36.82
2022-02-17T02:09:00,mcc,34.50
2022-02-17T02:10:00,mcc,35.67
2022-02-17T02:11:00,mcc,39.43
2022-02-17T02:12:00,mcc,38.16
2022-02-17T02:13:00,mcc,37.05
2022-02-17T02:14:00,mcc,37.03
2022-02-17T02:15:00,mcc,36.68
2022-02-17T02:16:00,mcc,37.05
2022-02-17T02:17:00,mcc,36.26
2022-02-17T02:18:00,mcc,35.91
2022-02-17T02:19:00,mcc,36.59
2022-02-17T02:20:00,mcc,37.41
2022-02-17T02:21:00,mcc,45.63
2022-02-17T02:22:00,mcc,39.32
2022-02-17T02:23:00,mcc,34.48
2022-02-17T02:24:00,mcc,35.01
2022-02-17T02:25:00,mcc,36.80
2022-02-17T02:26:00,mcc,35.94
2022-02-17T02:27:00,mcc,38.05
2022-02-17T02:28:00,mcc,39.25
2022-02-17T02:29:00,mcc,42.35
2022-02-17T02:30:00,mcc,42.27
2022-02-17T02:31:00,mcc,39.95
2022-02-17T02:32:00,mcc,38.52
2022-02-17T02:33:00,mcc,40.00
2022-02-17T02:34:00,mcc,36.83
2022-02-17T02:35:00,mcc,37.46
2022-02-17T02:36:00,mcc,37.17
2022-02-17T02:37:00,mcc,37.08
2022-02-17T02:38:00,mcc,47.06
2022-02-17T02:39:00,mcc,35.92
2022-02-17T02:40:00,mcc,35.57
2022-02-17T02:41:00,mcc,37.31
2022-02-17T02:42:00,mcc,36.29
2022-02-17T02:43:00,mcc,37.29
2022-02-17T02:44:00,mcc,34.76
2022-02-17T02:45:00,mcc,35.09
2022-02-17T02:46:00,mcc,37.51
2022-02-17T02:47:00,mcc,36.88
2022-02-17T02:48:00,mcc,37.27
2022-02-17T02:49:00,mcc,40.44
2022-02-17T02:50:00,mcc,37.71
2022-02-17T02:51:00,mcc,38.02
2022-02-17T02:52:00,mcc,38.99
2022-02-17T02:53:00,mcc,36.97
2022-02-17T02:54:00,mcc,35.24
2022-02-17T02:55:00,mcc,36.74
2022-02-17T02:56:00,mcc,46.39
2022-02-17T02:57:00,mcc,41.99
2022-02-17T02:58:00,mcc,37.41
2022-02-17T02:59:00,mcc,37.79
2022-02-17T03:00:00,mcc,41.87
2022-02-17T03:01:00,mcc,47.87
2022-02-17T03:02:00,mcc,40.54
2022-02-17T03:03:00,mcc,40.63
2022-02-17T03:04:00,mcc,40.58
2022-02-17T03:05:00,mcc,40.22
2022-02-17T03:06:00,mcc,38.41
2022-02-17T03:07:00,mcc,38.34
2022-02-17T03:08:00,mcc,40.94
2022-02-17T03:09:00,mcc,39.68
2022-02-17T03:10:00,mcc,37.93
2022-02-17T03:11:00,mcc,39.00
2022-02-17T03:12:00,mcc,37.92
2022-02-17T03:13:00,mcc,37.91
2022-02-17T03:14:00,mcc,44.49
2022-02-17T03:15:00,mcc,37.26
2022-02-17T03:16:00,mcc,37.91
2022-02-17T03:17:00,mcc,37.25
2022-02-17T03:18:00,mcc,37.06
2022-02-17T03:19:00,mcc,39.84
2022-02-17T03:20:00,mcc,36.60
2022-02-17T03:21:00,mcc,38.25
2022-02-17T03:22:00,mcc,39.09
2022-02-17T03:23:00,mcc,35.46
2022-02-17T03:24:00,mcc,37.87
2022-02-17T03:25:00,mcc,39.10
2022-02-17T03:26:00,mcc,50.45
2022-02-17T03:27:00,mcc,53.14
2022-02-17T03:28:00,mcc,50.24
2022-02-17T03:29:00,mcc,49.81
2022-02-17T03:30:00,mcc,41.20
2022-02-17T03:31:00,mcc,40.49
2022-02-17T03:32:00,mcc,40.90
2022-02-17T03:33:00,mcc,46.36
2022-02-17T03:34:00,mcc,39.98
2022-02-17T03:35:00,mcc,39.47
2022-02-17T03:36:00,mcc,38.68
2022-02-17T03:37:00,mcc,39.13
2022-02-17T03:38:00,mcc,36.70
2022-02-17T03:39:00,mcc,36.64
2022-02-17T03:40:00,mcc,40.38
2022-02-17T03:41:00,mcc,38.63
2022-02-17T03:42:00,mcc,38.96
2022-02-17T03:43:00,mcc,41.14
2022-02-17T03:44:00,mcc,39.97
2022-02-17T03:45:00,mcc,40.05
2022-02-17T03:46:00,mcc,42.39
2022-02-17T03:47:00,mcc,41.48
2022-02-17T03:48:00,mcc,42.65
2022-02-17T03:49:00,mcc,42.47
2022-02-17T03:50:00,mcc,38.07
2022-02-17T03:51:00,mcc,47.82
2022-02-17T03:52:00,mcc,43.26
2022-02-17T03:53:00,mcc,43.27
2022-02-17T03:54:00,mcc,46.15
2022-02-17T03:55:00,mcc,50.12
2022-02-17T03:56:00,mcc,49.77
2022-02-17T03:57:00,mcc,48.17
2022-02-17T03:58:00,mcc,47.16
2022-02-17T03:59:00,mcc,46.66
2022-02-17T04:00:00,mcc,39.84
2022-02-17T04:01:00,mcc,38.36
2022-02-17T04:02:00,mcc,41.81
2022-02-17T04:03:00,mcc,39.26
2022-02-17T04:04:00,mcc,39.29
2022-02-17T04:05:00,mcc,39.90
2022-02-17T04:06:00,mcc,36.95
2022-02-17T04:07:00,mcc,36.18
2022-02-17T04:08:00,mcc,36.71
2022-02-17T04:09:00,mcc,39.81
2022-02-17T04:10:00,mcc,40.46
2022-02-17T04:11:00,mcc,38.13
2022-02-17T04:12:00,mcc,37.78
2022-02-17T04:13:00,mcc,39.53
2022-02-17T04:14:00,mcc,36.55
2022-02-17T04:15:00,mcc,35.91
2022-02-17T04:16:00,mcc,40.00
2022-02-17T04:17:00,mcc,36.89
2022-02-17T04:18:00,mcc,40.00
2022-02-17T04:19:00,mcc,42.67
2022-02-17T04:20:00,mcc,44.26
2022-02-17T04:21:00,mcc,44.61
2022-02-17T04:22:00,mcc,44.34
2022-02-17T04:23:00,mcc,42.72
2022-02-17T04:24:00,mcc,44.23
2022-02-17T04:25:00,mcc,41.47
2022-02-17T04:26:00,mcc,40.66
2022-02-17T04:27:00,mcc,49.52
2022-02-17T04:28:00,mcc,36.93
2022-02-17T04:29:00,mcc,37.20
2022-02-17T04:30:00,mcc,36.32
2022-02-17T04:31:00,mcc,37.11
2022-02-17T04:32:00,mcc,40.29
2022-02-17T04:33:00,mcc,41.06
2022-02-17T04:34:00,mcc,41.19
2022-02-17T04:35:00,mcc,52.62
2022-02-17T04:36:00,mcc,39.26
2022-02-17T04:37:00,mcc,41.96
2022-02-17T04:38:00,mcc,40.49
2022-02-17T04:39:00,mcc,39.00
2022-02-17T04:40:00,mcc,40.92
2022-02-17T04:41:00,mcc,38.52
2022-02-17T04:42:00,mcc,38.73
2022-02-17T04:43:00,mcc,39.00
2022-02-17T04:44:00,mcc,37.01
2022-02-17T04:45:00,mcc,36.66
2022-02-17T04:46:00,mcc,40.50
2022-02-17T04:47:00,mcc,39.71
2022-02-17T04:48:00,mcc,41.71
2022-02-17T04:49:00,mcc,43.74
2022-02-17T04:50:00,mcc,40.23
2022-02-17T04:51:00,mcc,40.16
2022-02-17T04:52:00,mcc,35.49
2022-02-17T04:53:00,mcc,35.29
2022-02-17T04:54:00,mcc,37.14
2022-02-17T04:55:00,mcc,36.80
2022-02-17T04:56:00,mcc,43.72
2022-02-17T04:57:00,mcc,42.54
2022-02-17T04:58:00,mcc,38.31
2022-02-17T04:59:00,mcc,37.77
2022-02-17T05:00:00,mcc,38.62
2022-02-17T05:01:00,mcc,35.16
2022-02-17T05:02:00,mcc,43.47
2022-02-17T05:03:00,mcc,35.73
2022-02-17T05:04:00,mcc,34.32
2022-02-17T05:05:00,mcc,38.88
2022-02-17T05:06:00,mcc,36.22
2022-02-17T05:07:00,mcc,36.26
2022-02-17T05:08:00,mcc,37.88
2022-02-17T05:09:00,mcc,39.47
2022-02-17T05:10:00,mcc,40.19
2022-02-17T05:11:00,mcc,40.99
2022-02-17T05:12:00,mcc,42.59
2022-02-17T05:13:00,mcc,47.41
2022-02-17T05:14:00,mcc,44.44
2022-02-17T05:15:00,mcc,44.46
2022-02-17T05:16:00,mcc,44.74
2022-02-17T05:17:00,mcc,41.83
2022-02-17T05:18:00,mcc,41.05
2022-02-17T05:19:00,mcc,42.30
2022-02-17T05:20:00,mcc,40.89
2022-02-17T05:21:00,mcc,40.83
2022-02-17T05:22:00,mcc,43.89
2022-02-17T05:23:00,mcc,41.86
2022-02-17T05:24:00,mcc,41.52
2022-02-17T05:25:00,mcc,40.30
2022-02-17T05:26:00,mcc,40.97
2022-02-17T05:27:00,mcc,42.33
2022-02-17T05:28:00,mcc,41.32
2022-02-17T05:29:00,mcc,40.91
2022-02-17T05:30:00,mcc,43.66
2022-02-17T05:31:00,mcc,41.13
2022-02-17T05:32:00,mcc,42.74
2022-02-17T05:33:00,mcc,48.29
2022-02-17T05:34:00,mcc,45.93
2022-02-17T05:35:00,mcc,55.33
2022-02-17T05:36:00,mcc,45.38
2022-02-17T05:37:00,mcc,44.62
2022-02-17T05:38:00,mcc,48.81
2022-02-17T05:39:00,mcc,46.68
2022-02-17T05:40:00,mcc,43.18
2022-02-17T05:41:00,mcc,43.10
2022-02-17T05:42:00,mcc,36.45
2022-02-17T05:43:00,mcc,35.40
2022-02-17T05:44:00,mcc,36.46
2022-02-17T05:45:00,mcc,36.23
2022-02-17T05:46:00,mcc,35.65
2022-02-17T05:47:00,mcc,40.03
2022-02-17T05:48:00,mcc,38.81
2022-02-17T05:49:00,mcc,40.11
2022-02-17T05:50:00,mcc,40.02
2022-02-17T05:51:00,mcc,39.66
2022-02-17T05:52:00,mcc,41.01
2022-02-17T05:53:00,mcc,39.52
2022-02-17T05:54:00,mcc,41.12
2022-02-17T05:55:00,mcc,42.75
2022-02-17T05:56:00,mcc,40.62
2022-02-17T05:57:00,mcc,40.44
2022-02-17T05:58:00,mcc,41.88
2022-02-17T05:59:00,mcc,39.86
2022-02-17T06:00:00,mcc,40.06
2022-02-17T06:01:00,mcc,42.25
2022-02-17T06:02:00,mcc,39.83
2022-02-17T06:03:00,mcc,41.43
2022-02-17T06:04:00,mcc,41.38
2022-02-17T06:05:00,mcc,42.29
2022-02-17T06:06:00,mcc,42.84
2022-02-17T06:07:00,mcc,39.67
2022-02-17T06:08:00,mcc,37.87
2022-02-17T06:09:00,mcc,37.51
2022-02-17T06:10:00,mcc,36.75
2022-02-17T06:11:00,mcc,40.79
2022-02-17T06:12:00,mcc,38.78
2022-02-17T06:13:00,mcc,45.44
2022-02-17T06:14:00,mcc,38.55
2022-02-17T06:15:00,mcc,34.69
2022-02-17T06:16:00,mcc,37.22
2022-02-17T06:17:00,mcc,39.34
2022-02-17T06:18:00,mcc,36.02
2022-02-17T06:19:00,mcc,34.83
2022-02-17T06:20:00,mcc,36.79
2022-02-17T06:21:00,mcc,36.16
2022-02-17T06:22:00,mcc,37.02
2022-02-17T06:23:00,mcc,37.41
2022-02-17T06:24:00,mcc,37.67
2022-02-17T06:25:00,mcc,35.43
2022-02-17T06:26:00,mcc,39.30
2022-02-17T06:27:00,mcc,41.55
2022-02-17T06:28:00,mcc,45.66
2022-02-17T06:29:00,mcc,44.42
2022-02-17T06:30:00,mcc,43.66
2022-02-17T06:31:00,mcc,49.32
2022-02-17T06:32:00,mcc,47.20
2022-02-17T06:33:00,mcc,48.19
2022-02-17T06:34:00,mcc,47.59
2022-02-17T06:35:00,mcc,43.51
2022-02-17T06:36:00,mcc,45.58
2022-02-17T06:37:00,mcc,56.45
2022-02-17T06:38:00,mcc,44.17
2022-02-17T06:39:00,mcc,51.85
2022-02-17T06:40:00,mcc,60.13
2022-02-17T06:41:00,mcc,62.80
2022-02-17T06:42:00,mcc,67.01
2022-02-17T06:43:00,mcc,63.91
2022-02-17T06:44:00,mcc,68.09
2022-02-17T06:45:00,mcc,62.97
2022-02-17T06:46:00,mcc,57.07
2022-02-17T06:47:00,mcc,67.78
2022-02-17T06:48:00,mcc,58.91
2022-02-17T06:49:00,mcc,66.53
2022-02-17T06:50:00,mcc,67.88
2022-02-17T06:51:00,mcc,57.23
2022-02-17T06:52:00,mcc,71.20
2022-02-17T06:53:00,mcc,57.59
2022-02-17T06:54:00,mcc,47.19
2022-02-17T06:55:00,mcc,49.95
2022-02-17T06:56:00,mcc,52.89
2022-02-17T06:57:00,mcc,48.35
2022-02-17T06:58:00,mcc,50.01
2022-02-17T06:59:00,mcc,47.17
2022-02-17T07:00:00,mcc,51.69
2022-02-17T07:01:00,mcc,50.31
2022-02-17T07:02:00,mcc,50.13
2022-02-17T07:03:00,mcc,48.36
2022-02-17T07:04:00,mcc,50.15
2022-02-17T07:05:00,mcc,55.38
2022-02-17T07:06:00,mcc,48.53
2022-02-17T07:07:00,mcc,49.20
2022-02-17T07:08:00,mcc,46.54
2022-02-17T07:09:00,mcc,46.52
2022-02-17T07:10:00,mcc,54.61
2022-02-17T07:11:00,mcc,48.67
2022-02-17T07:12:00,mcc,49.79
2022-02-17T07:13:00,mcc,46.84
2022-02-17T07:14:00,mcc,48.11
2022-02-17T07:15:00,mcc,57.48
2022-02-17T07:16:00,mcc,58.05
2022-02-17T07:17:00,mcc,57.72
2022-02-17T07:18:00,mcc,58.07
2022-02-17T07:19:00,mcc,53.01
2022-02-17T07:20:00,mcc,51.84
2022-02-17T07:21:00,mcc,83.73
2022-02-17T07:22:00,mcc,66.06
2022-02-17T07:23:00,mcc,59.34
2022-02-17T07:24:00,mcc,59.35
2022-02-17T07:25:00,mcc,56.52
2022-02-17T07:26:00,mcc,51.44
2022-02-17T07:27:00,mcc,54.18
2022-02-17T07:28:00,mcc,53.20
2022-02-17T07:29:00,mcc,47.27
2022-02-17T07:30:00,mcc,55.09
2022-02-17T07:31:00,mcc,54.07
2022-02-17T07:32:00,mcc,50.80
2022-02-17T07:33:00,mcc,43.29
2022-02-17T07:34:00,mcc,43.10
2022-02-17T07:35:00,mcc,45.09
2022-02-17T07:36:00,mcc,46.15
2022-02-17T07:37:00,mcc,49.67
2022-02-17T07:38:00,mcc,49.77
2022-02-17T07:39:00,mcc,64.92
2022-02-17T07:40:00,mcc,52.04
2022-02-17T07:41:00,mcc,48.55
2022-02-17T07:42:00,mcc,48.61
2022-02-17T07:43:00,mcc,50.54
2022-02-17T07:44:00,mcc,47.61
2022-02-17T07:45:00,mcc,50.76
2022-02-17T07:46:00,mcc,52.59
2022-02-17T07:47:00,mcc,48.29
2022-02-17T07:48:00,mcc,49.97
2022-02-17T07:49:00,mcc,50.02
2022-02-17T07:50:00,mcc,48.92
2022-02-17T07:51:00,mcc,53.11
2022-02-17T07:52:00,mcc,48.78
2022-02-17T07:53:00,mcc,48.84
2022-02-17T07:54:00,mcc,50.89
2022-02-17T07:55:00,mcc,49.17
2022-02-17T07:56:00,mcc,50.79
2022-02-17T07:57:00,mcc,51.91
2022-02-17T07:58:00,mcc,53.06
2022-02-17T07:59:00,mcc,54.04
2022-02-17T08:00:00,mcc,51.75
2022-02-17T08:01:00,mcc,75.43
2022-02-17T08:02:00,mcc,51.53
2022-02-17T08:03:00,mcc,48.70
2022-02-17T08:04:00,mcc,49.10
2022-02-17T08:05:00,mcc,51.73
2022-02-17T08:06:00,mcc,50.82
2022-02-17T08:07:00,mcc,52.07
2022-02-17T08:08:00,mcc,50.47
2022-02-17T08:09:00,mcc,50.75
2022-02-17T08:10:00,mcc,55.58
2022-02-17T08:11:00,mcc,47.06
2022-02-17T08:12:00,mcc,47.84
2022-02-17T08:13:00,mcc,49.46
2022-02-17T08:14:00,mcc,49.04
2022-02-17T08:15:00,mcc,48.95
2022-02-17T08:16:00,mcc,58.51
2022-02-17T08:17:00,mcc,47.30
2022-02-17T08:18:00,mcc,63.64
2022-02-17T08:19:00,mcc,59.94
2022-02-17T08:20:00,mcc,48.76
2022-02-17T08:21:00,mcc,47.43
2022-02-17T08:22:00,mcc,55.87
2022-02-17T08:23:00,mcc,48.77
2022-02-17T08:24:00,mcc,49.88
2022-02-17T08:25:00,mcc,48.51
2022-02-17T08:26:00,mcc,49.44
2022-02-17T08:27:00,mcc,52.88
2022-02-17T08:28:00,mcc,59.24
2022-02-17T08:29:00,mcc,60.78
2022-02-17T08:30:00,mcc,59.55
2022-02-17T08:31:00,mcc,56.79
2022-02-17T08:32:00,mcc,57.34
2022-02-17T08:33:00,mcc,58.05
2022-02-17T08:34:00,mcc,57.22
2022-02-17T08:35:00,mcc,58.94
2022-02-17T08:36:00,mcc,56.43
2022-02-17T08:37:00,mcc,56.03
2022-02-17T08:38:00,mcc,57.61
2022-02-17T08:39:00,mcc,56.79
2022-02-17T08:40:00,mcc,62.71
2022-02-17T08:41:00,mcc,48.16
2022-02-17T08:42:00,mcc,57.74
2022-02-17T08:43:00,mcc,57.24
2022-02-17T08:44:00,mcc,60.13
2022-02-17T08:45:00,mcc,49.25
2022-02-17T08:46:00,mcc,50.50
2022-02-17T08:47:00,mcc,54.39
2022-02-17T08:48:00,mcc,52.12
2022-02-17T08:49:00,mcc,71.01
2022-02-17T08:50:00,mcc,62.33
2022-02-17T08:51:00,mcc,54.25
2022-02-17T08:52:00,mcc,55.96
2022-02-17T08:53:00,mcc,51.66
2022-02-17T08:54:00,mcc,52.44
2022-02-17T08:55:00,mcc,51.91
2022-02-17T08:56:00,mcc,58.51
2022-02-17T08:57:00,mcc,49.96
2022-02-17T08:58:00,mcc,56.62
2022-02-17T08:59:00,mcc,49.93
2022-02-17T09:00:00,mcc,52.78
2022-02-17T09:01:00,mcc,63.27
2022-02-17T09:02:00,mcc,64.89
2022-02-17T09:03:00,mcc,52.01
2022-02-17T09:04:00,mcc,57.43
2022-02-17T09:05:00,mcc,48.28
2022-02-17T09:06:00,mcc,48.17
2022-02-17T09:07:00,mcc,47.57
2022-02-17T09:08:00,mcc,49.21
2022-02-17T09:09:00,mcc,50.65
2022-02-17T09:10:00,mcc,57.70
2022-02-17T09:11:00,mcc,54.13
2022-02-17T09:12:00,mcc,51.28
2022-02-17T09:13:00,mcc,61.90
2022-02-17T09:14:00,mcc,54.63
2022-02-17T09:15:00,mcc,50.87
2022-02-17T09:16:00,mcc,56.02
2022-02-17T09:17:00,mcc,51.04
2022-02-17T09:18:00,mcc,64.09
2022-02-17T09:19:00,mcc,49.50
2022-02-17T09:20:00,mcc,51.40
2022-02-17T09:21:00,mcc,48.46
2022-02-17T09:22:00,mcc,57.34
2022-02-17T09:23:00,mcc,50.23
2022-02-17T09:24:00,mcc,58.00
2022-02-17T09:25:00,mcc,57.06
2022-02-17T09:26:00,mcc,57.61
2022-02-17T09:27:00,mcc,58.42
2022-02-17T09:28:00,mcc,76.23
2022-02-17T09:29:00,mcc,56.78
2022-02-17T09:30:00,mcc,55.71
2022-02-17T09:31:00,mcc,52.70
2022-02-17T09:32:00,mcc,50.74
2022-02-17T09:33:00,mcc,50.51
2022-02-17T09:34:00,mcc,54.93
2022-02-17T09:35:00,mcc,46.36
2022-02-17T09:36:00,mcc,46.60
2022-02-17T09:37:00,mcc,46.32
2022-02-17T09:38:00,mcc,47.48
2022-02-17T09:39:00,mcc,48.10
2022-02-17T09:40:00,mcc,54.86
2022-02-17T09:41:00,mcc,48.31
2022-02-17T09:42:00,mcc,51.83
2022-02-17T09:43:00,mcc,51.43
2022-02-17T09:44:00,mcc,51.84
2022-02-17T09:45:00,mcc,53.37
2022-02-17T09:46:00,mcc,58.78
2022-02-17T09:47:00,mcc,51.18
2022-02-17T09:48:00,mcc,52.18
2022-02-17T09:49:00,mcc,56.86
2022-02-17T09:50:00,mcc,49.64
2022-02-17T09:51:00,mcc,50.54
2022-02-17T09:52:00,mcc,57.16
2022-02-17T09:53:00,mcc,49.30
2022-02-17T09:54:00,mcc,52.33
2022-02-17T09:55:00,mcc,53.29
2022-02-17T09:56:00,mcc,51.59
2022-02-17T09:57:00,mcc,48.44
2022-02-17T09:58:00,mcc,56.27
2022-02-17T09:59:00,mcc,50.38
2022-02-17T10:00:00,mcc,46.86
2022-02-17T10:01:00,mcc,48.75
2022-02-17T10:02:00,mcc,54.27
2022-02-17T10:03:00,mcc,52.58
2022-02-17T10:04:00,mcc,60.21
2022-02-17T10:05:00,mcc,56.18
2022-02-17T10:06:00,mcc,53.01
2022-02-17T10:07:00,mcc,58.70
2022-02-17T10:08:00,mcc,49.95
2022-02-17T10:09:00,mcc,51.20
2022-02-17T10:10:00,mcc,65.45
2022-02-17T10:11:00,mcc,52.95
2022-02-17T10:12:00,mcc,51.63
2022-02-17T10:13:00,mcc,54.70
2022-02-17T10:14:00,mcc,51.78
2022-02-17T10:15:00,mcc,52.40
2022-02-17T10:16:00,mcc,62.26
2022-02-17T10:17:00,mcc,51.89
2022-02-17T10:18:00,mcc,52.71
2022-02-17T10:19:00,mcc,59.17
2022-02-17T10:20:00,mcc,56.97
2022-02-17T10:21:00,mcc,58.95
2022-02-17T10:22:00,mcc,65.86
2022-02-17T10:23:00,mcc,51.41
2022-02-17T10:24:00,mcc,51.53
2022-02-17T10:25:00,mcc,49.34
2022-02-17T10:26:00,mcc,50.30
2022-02-17T10:27:00,mcc,51.07
2022-02-17T10:28:00,mcc,58.27
2022-02-17T10:29:00,mcc,51.03
2022-02-17T10:30:00,mcc,54.66
2022-02-17T10:31:00,mcc,50.08
2022-02-17T10:32:00,mcc,52.37
2022-02-17T10:33:00,mcc,70.22
2022-02-17T10:34:00,mcc,52.50
2022-02-17T10:35:00,mcc,53.02
2022-02-17T10:36:00,mcc,51.32
2022-02-17T10:37:00,mcc,52.97
2022-02-17T10:38:00,mcc,54.24
2022-02-17T10:39:00,mcc,54.14
2022-02-17T10:40:00,mcc,53.56
2022-02-17T10:41:00,mcc,52.07
2022-02-17T10:42:00,mcc,49.55
2022-02-17T10:43:00,mcc,57.95
2022-02-17T10:44:00,mcc,64.54
2022-02-17T10:45:00,mcc,54.24
2022-02-17T10:46:00,mcc,56.65
2022-02-17T10:47:00,mcc,51.34
2022-02-17T10:48:00,mcc,52.39
2022-02-17T10:49:00,mcc,59.12
2022-02-17T10:50:00,mcc,52.68
2022-02-17T10:51:00,mcc,55.18
2022-02-17T10:52:00,mcc,80.27
2022-02-17T10:53:00,mcc,61.46
2022-02-17T10:54:00,mcc,54.60
2022-02-17T10:55:00,mcc,54.00
2022-02-17T10:56:00,mcc,52.30
2022-02-17T10:57:00,mcc,53.68
2022-02-17T10:58:00,mcc,52.73
2022-02-17T10:59:00,mcc,54.11
2022-02-17T11:00:00,mcc,54.22
2022-02-17T11:01:00,mcc,57.42
2022-02-17T11:02:00,mcc,66.38
2022-02-17T11:03:00,mcc,57.05
2022-02-17T11:04:00,mcc,57.54
2022-02-17T11:05:00,mcc,56.62
2022-02-17T11:06:00,mcc,56.83
2022-02-17T11:07:00,mcc,52.45
2022-02-17T11:08:00,mcc,62.34
2022-02-17T11:09:00,mcc,55.91
2022-02-17T11:10:00,mcc,52.94
2022-02-17T11:11:00,mcc,53.74
2022-02-17T11:12:00,mcc,58.61
2022-02-17T11:13:00,mcc,56.91
2022-02-17T11:14:00,mcc,65.28
2022-02-17T11:15:00,mcc,56.14
2022-02-17T11:16:00,mcc,52.20
2022-02-17T11:17:00,mcc,67.47
2022-02-17T11:18:00,mcc,72.22
2022-02-17T11:19:00,mcc,62.74
2022-02-17T11:20:00,mcc,63.65
2022-02-17T11:21:00,mcc,53.56
2022-02-17T11:22:00,mcc,53.36
2022-02-17T11:23:00,mcc,56.90
2022-02-17T11:24:00,mcc,53.06
2022-02-17T11:25:00,mcc,53.34
2022-02-17T11:26:00,mcc,60.91
2022-02-17T11:27:00,mcc,53.16
2022-02-17T11:28:00,mcc,54.94
2022-02-17T11:29:00,mcc,51.48
2022-02-17T11:30:00,mcc,51.44
2022-02-17T11:31:00,mcc,52.83
2022-02-17T11:32:00,mcc,57.21
2022-02-17T11:33:00,mcc,49.20
2022-02-17T11:34:00,mcc,52.57
2022-02-17T11:35:00,mcc,52.14
2022-02-17T11:36:00,mcc,56.85
2022-02-17T11:37:00,mcc,57.94
2022-02-17T11:38:00,mcc,64.29
2022-02-17T11:39:00,mcc,56.31
2022-02-17T11:40:00,mcc,58.68
2022-02-17T11:41:00,mcc,54.43
2022-02-17T11:42:00,mcc,54.43
2022-02-17T11:43:00,mcc,55.09
2022-02-17T11:44:00,mcc,61.68
2022-02-17T11:45:00,mcc,52.97
2022-02-17T11:46:00,mcc,52.37
2022-02-17T11:47:00,mcc,52.33
2022-02-17T11:48:00,mcc,54.86
2022-02-17T11:49:00,mcc,53.83
2022-02-17T11:50:00,mcc,60.84
2022-02-17T11:51:00,mcc,56.27
2022-02-17T11:52:00,mcc,53.17
2022-02-17T11:53:00,mcc,54.78
2022-02-17T11:54:00,mcc,59.96
2022-02-17T11:55:00,mcc,52.12
2022-02-17T11:56:00,mcc,51.70
2022-02-17T11:57:00,mcc,58.53
2022-02-17T11:58:00,mcc,47.07
2022-02-17T11:59:00,mcc,53.94
2022-02-17T12:00:00,mcc,51.87
2022-02-17T12:01:00,mcc,52.94
2022-02-17T12:02:00,mcc,55.54
2022-02-17T12:03:00,mcc,56.59
2022-02-17T12:04:00,mcc,58.42
2022-02-17T12:05:00,mcc,59.57
2022-02-17T12:06:00,mcc,56.63
2022-02-17T12:07:00,mcc,52.68
2022-02-17T12:08:00,mcc,64.54
2022-02-17T12:09:00,mcc,52.76
2022-02-17T12:10:00,mcc,52.55
2022-02-17T12:11:00,mcc,52.46
2022-02-17T12:12:00,mcc,51.32
2022-02-17T12:13:00,mcc,53.15
2022-02-17T12:14:00,mcc,59.69
2022-02-17T12:15:00,mcc,51.86
2022-02-17T12:16:00,mcc,53.77
2022-02-17T12:17:00,mcc,49.92
2022-02-17T12:18:00,mcc,49.04
2022-02-17T12:19:00,mcc,56.55
2022-02-17T12:20:00,mcc,53.74
2022-02-17T12:21:00,mcc,53.49
2022-02-17T12:22:00,mcc,54.07
2022-02-17T12:23:00,mcc,51.64
2022-02-17T12:24:00,mcc,55.36
2022-02-17T12:25:00,mcc,52.14
2022-02-17T12:26:00,mcc,53.23
2022-02-17T12:27:00,mcc,54.67
2022-02-17T12:28:00,mcc,52.73
2022-02-17T12:29:00,mcc,51.31
2022-02-17T12:30:00,mcc,52.34
2022-02-17T12:31:00,mcc,59.02
2022-02-17T12:32:00,mcc,52.46
2022-02-17T12:33:00,mcc,54.76
2022-02-17T12:34:00,mcc,54.75
2022-02-17T12:35:00,mcc,54.19
2022-02-17T12:36:00,mcc,55.31
2022-02-17T12:37:00,mcc,54.53
2022-02-17T12:38:00,mcc,55.36
2022-02-17T12:39:00,mcc,55.83
2022-02-17T12:40:00,mcc,52.41
2022-02-17T12:41:00,mcc,52.66
2022-02-17T12:42:00,mcc,52.54
2022-02-17T12:43:00,mcc,52.50
2022-02-17T12:44:00,mcc,54.44
2022-02-17T12:45:00,mcc,54.00
2022-02-17T12:46:00,mcc,49.73
2022-02-17T12:47:00,mcc,49.78
2022-02-17T12:48:00,mcc,49.34
2022-02-17T12:49:00,mcc,48.94
2022-02-17T12:50:00,mcc,57.65
2022-02-17T12:51:00,mcc,50.08
2022-02-17T12:52:00,mcc,53.93
2022-02-17T12:53:00,mcc,51.66
2022-02-17T12:54:00,mcc,54.41
2022-02-17T12:55:00,mcc,57.23
2022-02-17T12:56:00,mcc,53.71
2022-02-17T12:57:00,mcc,56.98
2022-02-17T12:58:00,mcc,71.80
2022-02-17T12:59:00,mcc,52.73
2022-02-17T13:00:00,mcc,69.33
2022-02-17T13:01:00,mcc,49.24
2022-02-17T13:02:00,mcc,51.06
2022-02-17T13:03:00,mcc,52.92
2022-02-17T13:04:00,mcc,51.86
2022-02-17T13:05:00,mcc,59.29
2022-02-17T13:06:00,mcc,58.95
2022-02-17T13:07:00,mcc,56.57
2022-02-17T13:08:00,mcc,59.13
2022-02-17T13:09:00,mcc,77.07
2022-02-17T13:10:00,mcc,51.34
2022-02-17T13:11:00,mcc,52.41
2022-02-17T13:12:00,mcc,54.17
2022-02-17T13:13:00,mcc,51.29
2022-02-17T13:14:00,mcc,52.78
2022-02-17T13:15:00,mcc,53.45
2022-02-17T13:16:00,mcc,53.88
2022-02-17T13:17:00,mcc,59.44
2022-02-17T13:18:00,mcc,59.19